Volver al catálogo

BLACKJACK ACES-1

ActivoMilitarSSO
NORAD 56956·PAYLOAD·🇺🇸 United States

Lanzado Jun 12, 2023 desde Vandenberg Space Force Base

Loading…

Próximos Pases (próximas 24 horas)

TLE

ActualizadoSource: Space-Track

Época: Sep 14, 2026, 20:00 UTC

1 56956U 23084AA  26257.83384644  .00005938  00000-0  28887-3 0  9991
2 56956  97.6329  33.6506 0001367 105.5537 254.5848 15.18786174130508

Sigue BLACKJACK ACES-1 en tiempo real con AllMySat

Download on the App Store